Tracking 31027 objects as of 19-Jul-2025
HD Live streaming from Space Station
objects crossing your sky now

NOAA 17 DEB

Track NOAA 17 DEB now!
10-day predictions


NORAD ID: 48722
Int'l Code: 2002-032BG
Perigee: 649.4 km
Apogee: 665.1 km
Inclination: 98.7 °
Period: 97.7 minutes
Semi major axis: 7028 km
RCS: Unknown
Launch date: June 24, 2002
Source: United States (US)
Launch site: AIR FORCE WESTERN TEST RANGE (AFWTR)

Note: This is SATELLITE DEBRIS
Your satellite tracking list
KL-BETA B
Track 1 satellite(s)




NASA's NSSDC Master Catalog

Two Line Element Set (TLE):
1 48722U 02032BF  25199.22659298  .00013093  00000-0  20213-2 0  9995
2 48722  98.7117 200.1505 0011157 278.4321  81.5620 14.73444090228452
Source of the keplerian elements: AFSPC